Weather History for Cut Bank, MT

Change the Weather History Date:

Saturday, November 17, 2012

  Actual Average Record
Temperature  
Mean Temperature 40 °F 30 °F  
Max Temperature 46 °F 40 °F 63 °F (1936)
Min Temperature 33 °F 20 °F -25 °F (1955)
Degree Days  
Heating Degree Days 25 35  
Month to date heating degree days 539 545  
Since 1 July heating degree days 1710 1769  
Cooling Degree Days 0 0  
Month to date cooling degree days 0 0  
Year to date cooling degree days 210 162  
Moisture  
Dew Point 30 °F    
Average Humidity 68    
Maximum Humidity 82    
Minimum Humidity 53    
Precipitation  
Precipitation 0.00 in 0.02 in 0.38 in (1981)
Month to date precipitation 0.04 0.22  
Year to date precipitation 8.29 10.54  
Snow  
Snow 0.00 in - - ()
Snow Depth -    
Sea Level Pressure  
Sea Level Pressure 29.81 in    
Wind  
Wind Speed 8 mph (South)    
Max Wind Speed 18 mph    
Max Gust Speed 23 mph    
Visibility 10 miles    
Events      
T = Trace of Precipitation, MM = Missing Value Source: NWS Daily Summary

Daily Weather History Graph

Daily Weather History Graph

Search for Another Location

Airport:

Trip Planner

Search our weather history database for the weather conditions in past years. The results will help you decide how hot, cold, wet, or windy it might be!

Date:

Astronomy

Nov. 17, 2012 Rise Set
Actual Time 7:41 AM MST 4:46 PM MST
Civil Twilight 7:07 AM MST 5:21 PM MST
Nautical Twilight 6:28 AM MST 6:00 PM MST
Astronomical Twilight 5:51 AM MST 6:37 PM MST
Moon 11:29 AM MST (11/17) 9:03 PM MST (11/17)
Length of Visible Light 10h 14m
Length of Day
9h 05m
Waxing Crescent, 21% of the Moon is Illuminated
Nov 17
Waxing Crescent
Nov 20
First Quarter
Nov 28
Full
Dec 6
Last Quarter
Dec 13
New

Hourly Weather History & Observations

Time (MST) Temp. Windchill Dew Point Humidity Pressure Visibility Wind Dir Wind Speed Gust Speed Precip Events Conditions
12:56 AM 42.1 °F 33.9 °F 30.0 °F 62% 29.90 in 10.0 mi WSW 17.3 mph - N/A   Clear
1:56 AM 37.9 °F 30.9 °F 28.9 °F 70% 29.91 in 10.0 mi SW 10.4 mph - N/A   Clear
2:56 AM 37.9 °F 31.5 °F 28.9 °F 70% 29.91 in 10.0 mi SW 9.2 mph - N/A   Clear
3:56 AM 39.0 °F 32.8 °F 28.9 °F 67% 29.90 in 10.0 mi SW 9.2 mph - N/A   Clear
4:56 AM 37.0 °F 30.4 °F 28.9 °F 73% 29.92 in 10.0 mi SW 9.2 mph - N/A   Clear
5:56 AM 37.0 °F 31.6 °F 28.9 °F 73% 29.92 in 10.0 mi SW 6.9 mph - N/A   Clear
6:56 AM 37.0 °F 34.5 °F 28.0 °F 70% 29.91 in 10.0 mi South 3.5 mph - N/A   Clear
7:56 AM 34.0 °F 28.0 °F 28.0 °F 79% 29.93 in 10.0 mi SE 6.9 mph - N/A   Clear
8:56 AM 39.0 °F 34.8 °F 30.0 °F 70% 29.91 in 10.0 mi SE 5.8 mph - N/A   Clear
9:56 AM 41.0 °F 38.0 °F 28.4 °F 61% 29.86 in 10.0 mi SE 4.6 mph - N/A   Clear
10:56 AM 45.0 °F 40.6 °F 30.9 °F 58% 29.87 in 10.0 mi SSE 8.1 mph - N/A   Clear
11:56 AM 46.0 °F 41.4 °F 30.9 °F 56% 29.84 in 10.0 mi SSE 9.2 mph - N/A   Scattered Clouds
12:56 PM 43.0 °F 38.2 °F 32.0 °F 65% 29.81 in 10.0 mi South 8.1 mph - N/A   Partly Cloudy
1:56 PM 44.1 °F 40.1 °F 33.1 °F 65% 29.80 in 10.0 mi South 6.9 mph - N/A   Mostly Cloudy
2:56 PM 43.0 °F 39.5 °F 33.1 °F 68% 29.78 in 10.0 mi SE 5.8 mph - N/A   Clear
3:56 PM 43.0 °F 40.3 °F 33.1 °F 68% 29.76 in 10.0 mi SE 4.6 mph - N/A   Clear
4:56 PM 41.0 °F 35.2 °F 32.0 °F 70% 29.75 in 10.0 mi SE 9.2 mph 17.3 mph N/A   Clear
5:56 PM 39.0 °F 32.8 °F 30.9 °F 73% 29.73 in 10.0 mi SE 9.2 mph - N/A   Clear
6:56 PM 36.0 °F 32.1 °F 30.0 °F 79% 29.72 in 10.0 mi ESE 4.6 mph - N/A   Clear
7:56 PM 37.0 °F 30.4 °F 30.0 °F 76% 29.71 in 10.0 mi South 9.2 mph - N/A   Clear
8:56 PM 39.0 °F 31.4 °F 30.0 °F 70% 29.66 in 10.0 mi SSE 12.7 mph - N/A   Clear
9:56 PM 39.9 °F 32.5 °F 30.0 °F 68% 29.64 in 10.0 mi South 12.7 mph - N/A   Clear
10:56 PM 37.0 °F 31.6 °F 30.0 °F 76% 29.62 in 10.0 mi South 6.9 mph - N/A   Clear
11:56 PM 39.0 °F 31.8 °F 30.9 °F 73% 29.60 in 10.0 mi SW 11.5 mph 18.4 mph N/A   Clear